Flag for Sweden Weather past 2 weeks in Malmö, Sweden

Now
50 °F

Clear.


Feels Like: 46 °F
Forecast: 48 / 59 °F
Wind: 9 mph from Southeast

Location: Malmo / Sturup

Current Time: May 30, 2015 at 3:39:17 AM

Latest Report: May 30, 2015 at 2:50 AM


Visibility: 10 mi

Pressure: 29.59 "Hg

Humidity: 94%

Dew point: 48 °F

Location of MalmöLocation

Historic Weather in Malmö — Graph

°F

Malmö temperature yesterday

Maximum temperature yesterday: 57 °F (at 2:20 PM)
Minimum temperature yesterday: 43 °F (at 3:50 AM)
Average temperature yesterday: 51 °F

Past Weeks' High & Low Weather Summary

 TemperatureHumidityPressure
High59 °F (May 15, 12:50 PM)100% (May 15, 2:20 AM)30.24 "Hg (May 15, 2:20 AM)
Low37 °F (May 28, 3:50 AM)36% (May 15, 4:20 PM)29.53 "Hg (May 19, 4:20 AM)
Average50 °F76%29.93 "Hg
* Reported May 15 2:20 AM — May 30 2:20 AM, Malmö, Weather by CustomWeather, © 2015

Note: Actual official high and low records may vary slightly from our data, if they occured in-between our weather recording intervals... More about our weather records

Advertising

Malmö weather history for previous 24 hours

 ConditionsComfort  
Time TempWeatherWind HumidityBarometerVisibility
2:20 AM
Sat, May 30
50 °FClear.12 mph88%29.62 "Hg10 mi
1:50 AM48 °FClear.13 mph87%29.62 "Hg10 mi
1:20 AM50 °FPassing clouds.14 mph88%29.62 "HgN/A
12:50 AM48 °FPassing clouds.12 mph94%29.65 "HgN/A
12:20 AM50 °FRain showers. Passing clouds.13 mph82%29.65 "HgN/A
11:50 PM
Fri, May 29
50 °FRain. Passing clouds.13 mph82%29.68 "HgN/A
11:20 PM48 °FClear.12 mph87%29.68 "Hg10 mi
10:20 PM50 °FSunny.10 mph82%29.71 "Hg10 mi
9:50 PM50 °FSunny.9 mph82%29.74 "Hg10 mi
9:20 PM50 °FSunny.10 mph82%29.74 "Hg10 mi
8:50 PM52 °FSunny.9 mph77%29.74 "Hg10 mi
8:20 PM52 °FSunny.9 mph77%29.74 "Hg10 mi
7:50 PM52 °FSunny.10 mph72%29.77 "Hg10 mi
7:20 PM54 °FSunny.12 mph67%29.77 "Hg10 mi
6:50 PM54 °FSunny.13 mph67%29.77 "Hg10 mi
6:20 PM54 °FSunny.13 mph67%29.77 "Hg10 mi
5:50 PM55 °FSunny.14 mph55%29.77 "Hg10 mi
5:20 PM57 °FSunny.17 mph48%29.80 "Hg10 mi
4:50 PM57 °FSunny.15 mph51%29.80 "Hg10 mi
4:20 PM57 °FSunny.17 mph48%29.80 "Hg10 mi
3:50 PM57 °FSunny.18 mph51%29.80 "Hg10 mi
3:20 PM57 °FSunny.17 mph55%29.80 "Hg10 mi
2:50 PM57 °FPassing clouds.15 mph55%29.83 "HgN/A
2:20 PM57 °FBroken clouds.17 mph63%29.83 "HgN/A
1:50 PM55 °FBroken clouds.18 mph63%29.83 "HgN/A
1:20 PM55 °FBroken clouds.18 mph67%29.83 "HgN/A
12:50 PM55 °FBroken clouds.17 mph63%29.83 "HgN/A
12:20 PM55 °FCloudy.16 mph63%29.83 "HgN/A
11:50 AM55 °FBroken clouds.15 mph67%29.83 "HgN/A
11:20 AM54 °FBroken clouds.15 mph72%29.83 "HgN/A
10:50 AM55 °FBroken clouds.14 mph63%29.83 "HgN/A
10:20 AM54 °FPartly sunny.14 mph67%29.83 "HgN/A
9:50 AM54 °FScattered clouds.12 mph63%29.83 "HgN/A
9:20 AM52 °FScattered clouds.13 mph67%29.83 "HgN/A
8:50 AM52 °FScattered clouds.13 mph62%29.83 "HgN/A
8:20 AM50 °FScattered clouds.13 mph71%29.83 "HgN/A
7:50 AM50 °FScattered clouds.13 mph76%29.83 "HgN/A
7:20 AM48 °FPassing clouds.9 mph87%29.83 "HgN/A
6:50 AM46 °FSunny.8 mph87%29.83 "Hg10 mi
6:20 AM46 °FSunny.6 mph87%29.83 "Hg10 mi
5:50 AM45 °FSunny.6 mph87%29.83 "Hg10 mi
5:20 AM43 °FClear.5 mph93%29.80 "Hg10 mi
4:50 AM43 °FClear.6 mph93%29.80 "Hg10 mi
4:20 AM43 °FClear.7 mph93%29.80 "Hg10 mi
3:50 AM43 °FClear.6 mph93%29.80 "Hg10 mi
3:20 AM45 °FClear.7 mph87%29.80 "Hg10 mi
Weather by CustomWeather, © 2015

See weather overviewHow to use our weather pages